Flag for Hong Kong Weather past 2 weeks in Hong Kong, Hong Kong

Now
86 °F

Passing clouds.


Feels Like: 97 °F
Forecast: 81 / 89 °F
Wind: 9 mph from South

Location: National Airport

Current Time: Jul 4, 2015 at 8:35:39 PM

Latest Report: Jul 4, 2015 at 8:00 PM


Visibility: N/A

Pressure: 29.59 "Hg

Humidity: 75%

Dew point: 77 °F

Location of Hong KongLocation

Historic Weather in Hong Kong — Graph

°F

Hong Kong temperature yesterday

Maximum temperature yesterday: 93 °F (at 10:00 AM)
Minimum temperature yesterday: 86 °F (at 3:00 AM)
Average temperature yesterday: 89 °F

Past Weeks' High & Low Weather Summary

 TemperatureHumidityPressure
High95 °F (Jun 30, 2:00 PM)94% (Jun 22, 3:30 PM)29.83 "Hg (Jun 22, 3:30 PM)
Low77 °F (Jun 23, 9:00 AM)49% (Jun 20, 1:00 PM)29.56 "Hg (Jun 22, 2:30 PM)
Average87 °F73%29.67 "Hg
* Reported Jun 19 7:00 PM — Jul 4 7:30 PM, Hong Kong, Weather by CustomWeather, © 2015

Note: Actual official high and low records may vary slightly from our data, if they occured in-between our weather recording intervals... More about our weather records

Advertising

Hong Kong weather history for previous 24 hours

 ConditionsComfort  
Time TempWeatherWind HumidityBarometerVisibility
7:30 PM
Sat, Jul 4
88 °FPassing clouds.5 mph66%29.59 "HgN/A
7:00 PM88 °FPassing clouds.10 mph70%29.56 "HgN/A
6:30 PM88 °FPassing clouds.14 mph70%29.56 "HgN/A
6:00 PM88 °FPassing clouds.12 mph70%29.56 "HgN/A
5:30 PM88 °FPassing clouds.12 mph66%29.56 "HgN/A
5:00 PM90 °FPassing clouds.16 mph67%29.56 "HgN/A
4:30 PM90 °FPassing clouds.14 mph67%29.56 "HgN/A
4:00 PM91 °FPassing clouds.13 mph63%29.56 "HgN/A
3:30 PM90 °FPassing clouds.14 mph67%29.56 "HgN/A
3:00 PM93 °FPassing clouds.9 mph59%29.56 "HgN/A
2:30 PM93 °FPassing clouds.12 mph59%29.59 "HgN/A
2:00 PM93 °FPassing clouds.12 mph56%29.59 "HgN/A
1:30 PM91 °FPassing clouds.9 mph59%29.59 "HgN/A
1:00 PM93 °FPassing clouds.12 mph56%29.62 "HgN/A
12:30 PM93 °FPassing clouds.13 mph56%29.62 "HgN/A
12:00 PM91 °FPassing clouds.12 mph63%29.62 "HgN/A
11:30 AM91 °FPassing clouds.12 mph59%29.62 "HgN/A
11:00 AM93 °FPassing clouds.9 mph56%29.62 "HgN/A
10:30 AM91 °FPassing clouds.2 mph63%29.62 "HgN/A
10:00 AM91 °FPassing clouds.3 mph63%29.62 "HgN/A
9:30 AM91 °FPassing clouds.9 mph59%29.62 "HgN/A
9:00 AM90 °FPassing clouds.6 mph63%29.62 "HgN/A
8:30 AM88 °FPassing clouds.7 mph66%29.62 "HgN/A
8:00 AM88 °FPassing clouds.6 mph70%29.62 "HgN/A
7:30 AM88 °FPassing clouds.6 mph70%29.59 "HgN/A
7:00 AM88 °FPassing clouds.5 mph70%29.59 "HgN/A
6:30 AM86 °FPassing clouds.3 mph75%29.59 "HgN/A
6:00 AM86 °FPassing clouds.5 mph75%29.59 "HgN/A
5:30 AM86 °FPassing clouds.5 mph75%29.59 "HgN/A
5:00 AM86 °FPassing clouds.7 mph70%29.59 "HgN/A
4:30 AM86 °FPassing clouds.8 mph70%29.59 "HgN/A
4:00 AM86 °FPassing clouds.7 mph75%29.59 "HgN/A
3:30 AM86 °FPassing clouds.7 mph75%29.56 "HgN/A
3:00 AM86 °FPassing clouds.8 mph75%29.56 "HgN/A
2:30 AM86 °FPassing clouds.8 mph75%29.59 "HgN/A
2:00 AM86 °FPassing clouds.7 mph75%29.59 "HgN/A
1:30 AM86 °FPassing clouds.6 mph79%29.59 "HgN/A
1:00 AM86 °FPassing clouds.9 mph79%29.59 "HgN/A
12:30 AM86 °FPassing clouds.5 mph79%29.59 "HgN/A
12:00 AM86 °FPassing clouds.10 mph79%29.59 "HgN/A
11:30 PM
Fri, Jul 3
88 °FPassing clouds.10 mph70%29.59 "HgN/A
11:00 PM88 °FPassing clouds.12 mph75%29.59 "HgN/A
10:30 PM86 °FPassing clouds.3 mph79%29.59 "HgN/A
10:00 PM88 °FPassing clouds.9 mph75%29.59 "HgN/A
9:30 PM88 °FPassing clouds.7 mph75%29.59 "HgN/A
9:00 PM86 °FPassing clouds.6 mph79%29.56 "HgN/A
8:30 PM88 °FPassing clouds.6 mph75%29.56 "HgN/A
8:00 PM88 °FPassing clouds.5 mph75%29.56 "HgN/A
Weather by CustomWeather, © 2015

See weather overviewHow to use our weather pages